Wind_Speed
36 35 35 34 33 32 32 33 33 33 33 32 32 32 33 34 34 36 36 36 37 38 38 38 39 40 40 40 40 41 42 42 43 44 44 45 45 46 47 48 48 48 49 50 50 51 51 52 53 53 54 54 55 56 56 57 57 58 58 59 59 59 60 60 60 60 60 60 60 60 61 61 62 63 64 65 66 66 67 68 68 69 70 70 70
37 36 36 35 33 33 34 34 34 34 34 33 33 34 35 36 37 38 38 39 40 40 40 41 41 42 42 42 43 43 44 45 46 46 47 47 48 49 49 50 50 50 51 51 52 53 53 54 55 55 56 57 57 58 59 59 60 61 61 62 62 62 63 63 63 63 63 63 63 63 63 64 64 65 66 67 68 69 70 70 71 71 72 72 72
38 37 36 35 35 34 35 35 36 36 35 35 35 36 37 38 39 40 40 41 41 42 42 43 43 44 44 44 45 46 46 47 48 48 49 49 50 50 51 51 51 52 53 54 54 55 56 56 57 57 58 59 60 61 61 62 63 63 64 64 65 65 65 65 65 65 65 65 65 65 66 66 67 68 69 70 70 71 72 72 73 73 74 74 75
38 38 36 36 36 36 35 36 37 36 37 37 38 39 40 41 41 42 42 43 43 44 45 45 45 46 46 46 47 48 48 49 50 50 50 51 51 52 52 53 54 54 55 56 57 58 58 59 59 60 61 62 62 63 64 65 65 66 67 67 67 68 68 68 68 68 67 67 68 68 68 69 70 71 72 73 74 74 75 75 75 75 76 76 76
36 36 36 36 36 36 36 37 37 38 38 39 40 41 42 43 43 44 44 45 45 46 47 47 48 48 49 49 50 51 51 52 52 52 52 53 54 54 55 56 57 58 58 59 60 61 62 62 63 63 64 64 65 66 67 67 68 69 69 69 70 70 70 70 70 70 70 70 70 70 71 72 73 74 75 76 77 77 78 78 78 78 78 78 79
35 35 34 35 36 37 38 39 39 40 41 42 42 44 45 45 46 46 47 47 48 49 49 50 51 52 52 53 54 54 54 55 55 55 56 56 57 57 58 59 60 61 62 62 63 64 64 65 66 66 67 67 68 69 69 70 70 71 71 71 71 72 72 72 72 72 71 71 72 72 73 74 76 78 79 80 81 81 81 81 80 81 81 81 82
36 35 35 35 36 37 38 40 41 42 43 44 45 46 47 48 48 49 50 50 51 52 52 53 54 55 56 56 57 57 58 59 59 59 59 59 60 61 61 62 63 64 64 65 65 66 67 67 68 68 69 69 70 70 71 71 72 72 72 72 72 72 73 73 73 73 73 74 74 75 76 78 79 80 81 82 83 83 83 83 83 83 84 84 84
37 36 36 36 37 38 40 41 42 43 44 46 47 48 49 50 51 52 53 53 54 55 55 56 57 58 58 59 60 61 61 62 61 62 62 63 63 64 65 65 66 67 67 67 68 68 69 69 69 69 69 70 70 71 71 72 72 73 73 73 73 73 74 74 75 76 76 77 78 79 80 81 81 82 82 83 83 83 83 84 84 84 84 84 84
37 37 37 37 39 40 42 43 44 45 47 48 49 50 52 53 54 55 55 56 57 58 59 60 60 61 61 62 63 64 64 64 64 65 66 66 67 67 68 68 68 69 69 69 69 70 70 70 69 69 70 70 70 71 71 72 72 73 73 74 74 75 76 77 78 79 80 81 82 82 82 83 82 82 82 82 82 82 83 83 83 83 83 83 83
37 38 39 40 42 43 44 46 47 49 50 51 52 53 54 56 57 57 58 58 59 60 62 62 63 63 64 65 65 66 66 67 67 68 68 69 69 69 69 69 69 70 70 70 70 70 70 70 70 70 70 71 71 71 72 73 73 74 75 76 77 78 79 80 81 82 82 83 83 84 84 84 83 83 83 82 82 82 82 82 82 82 82 82 82
39 40 42 43 45 45 47 48 50 51 52 53 55 56 57 58 59 60 60 61 62 63 64 64 65 65 66 66 66 67 67 67 68 69 69 69 70 70 71 71 71 71 71 71 71 71 71 71 71 71 72 73 74 74 75 76 77 77 78 78 80 80 81 82 82 83 83 84 85 85 85 85 84 83 83 82 82 82 81 81 81 81 82 82 83
42 43 45 46 47 48 50 51 52 53 54 56 57 57 58 59 60 61 62 63 63 64 65 65 66 66 66 66 66 66 67 67 68 69 70 71 71 72 72 72 73 73 73 73 73 74 74 75 75 76 77 78 78 79 79 79 79 79 80 80 81 82 82 83 83 84 85 85 85 85 85 84 84 83 83 82 82 82 81 81 81 81 82 82 83
46 46 47 48 48 50 51 52 54 55 55 56 57 58 59 60 61 62 63 63 64 64 65 66 66 66 67 67 67 68 68 69 70 71 72 72 73 73 73 74 74 75 76 76 77 77 78 79 79 80 80 81 81 81 81 81 80 80 81 82 82 83 83 84 85 85 85 85 85 85 84 83 83 83 82 82 82 82 82 81 82 82 84 85 85
49 49 50 50 50 52 53 54 55 56 56 57 58 58 60 61 62 63 63 64 65 66 66 67 67 68 68 69 70 71 72 72 73 73 73 73 74 74 75 76 77 78 79 79 80 80 81 81 81 82 82 82 82 82 82 81 82 82 82 83 83 84 84 84 85 85 85 84 84 83 82 82 82 82 82 82 83 83 84 84 85 86 87 88 88
54 54 54 55 55 56 57 57 58 58 59 59 60 61 62 62 63 64 65 66 67 68 69 69 70 71 72 73 74 74 75 75 75 75 75 75 76 77 77 78 79 80 81 82 83 83 83 83 83 83 83 83 82 82 82 82 82 83 83 83 84 84 84 83 83 83 82 82 82 82 81 81 82 82 83 84 84 85 86 87 87 88 90 91 92
58 58 58 59 60 61 61 61 61 61 62 62 63 64 65 66 67 68 69 70 71 72 72 73 74 75 76 76 77 77 77 78 78 79 79 79 80 81 81 81 82 83 83 84 84 84 84 84 83 83 83 82 82 82 82 82 82 82 83 83 83 83 82 81 81 81 81 81 81 81 81 82 83 83 84 85 86 87 88 89 90 92 93 94 95
61 62 63 64 64 65 65 65 65 66 66 67 68 69 70 71 72 72 73 74 75 76 76 77 78 79 79 80 80 80 81 82 82 83 83 83 84 84 84 84 84 84 84 84 84 84 84 83 83 83 82 82 81 81 81 81 81 81 81 81 81 80 80 79 79 80 80 80 81 82 83 84 85 86 87 88 89 90 91 92 94 94 95 97 97
65 66 67 69 70 70 70 70 70 71 71 72 72 73 73 74 75 76 76 77 78 79 80 80 81 81 82 82 83 83 84 85 85 86 86 86 86 86 86 85 85 84 84 84 83 83 83 82 82 82 81 81 80 80 80 80 79 79 79 79 80 80 80 79 79 80 81 82 83 84 86 87 88 89 91 92 93 93 94 96 96 96 97 98 98
69 70 71 73 73 73 73 73 74 74 74 74 75 75 76 76 77 78 78 79 80 81 82 82 82 83 83 84 84 85 85 85 86 86 86 86 86 86 85 85 84 83 83 82 81 81 80 80 80 79 79 79 80 79 79 78 78 79 79 80 80 81 80 80 81 83 84 85 86 87 88 90 91 92 94 95 95 95 95 96 96 96 96 97 98
72 73 73 74 75 75 75 75 75 75 75 76 76 77 77 78 79 79 80 81 81 81 82 82 82 82 83 83 83 83 84 84 84 84 84 84 84 84 83 83 81 80 79 79 78 77 77 77 78 78 78 78 79 78 78 78 78 79 80 81 81 82 82 83 84 86 87 88 89 90 91 92 93 94 95 95 95 94 95 95 96 96 97 98 99
74 74 75 75 76 76 76 77 77 78 78 78 78 78 79 80 81 81 81 82 82 81 81 81 81 81 81 82 82 82 83 83 83 83 82 82 81 81 81 79 78 77 76 76 76 76 77 77 78 79 79 79 78 78 78 78 78 79 81 82 83 84 85 86 88 89 90 91 92 92 93 94 94 95 96 96 96 97 97 97 98 97 98 99 100
76 76 76 76 76 77 77 78 79 80 80 79 79 79 80 82 82 83 83 83 82 81 81 81 81 81 82 82 82 82 83 83 82 82 81 80 80 79 78 76 76 76 76 76 77 77 78 79 80 80 80 80 80 81 81 81 81 81 83 85 87 88 88 89 90 91 92 94 94 95 95 96 96 97 98 98 99 99 99 99 98 98 98 99 99
77 77 77 77 77 77 77 78 79 80 80 80 81 82 83 83 84 84 83 82 82 81 81 81 82 82 82 82 82 82 81 81 81 80 80 79 79 78 77 77 77 77 78 79 79 80 81 81 82 82 83 83 84 85 86 86 86 85 87 89 91 92 92 93 95 96 96 96 96 96 96 98 99 100 100 100 100 100 99 98 98 98 98 98 98
77 78 77 77 77 78 78 79 80 81 81 82 83 84 84 83 83 83 82 82 82 82 82 82 82 82 81 81 80 80 79 79 79 79 79 79 79 79 80 80 81 82 82 83 83 83 84 84 84 85 85 86 87 88 90 91 91 91 91 94 96 97 97 97 98 97 95 94 94 95 97 99 100 101 102 102 101 99 98 98 97 97 97 96 96
77 77 78 79 79 80 81 81 82 83 84 84 84 84 83 82 82 81 81 82 82 83 83 83 83 82 81 80 80 80 80 80 81 81 81 82 82 83 84 85 85 85 85 85 85 85 86 86 87 88 89 90 91 93 94 96 96 96 96 98 99 99 98 97 97 96 95 94 95 96 98 99 101 102 102 103 102 100 100 100 100 99 98 97 96
77 78 79 80 81 82 83 83 84 84 84 84 83 83 82 82 82 82 83 84 84 85 85 85 84 84 83 83 83 84 85 85 86 86 86 87 87 87 88 90 89 88 88 88 87 87 88 89 91 92 94 95 96 97 97 98 98 96 95 95 96 96 96 97 98 98 98 97 96 96 97 98 99 100 102 103 104 104 104 103 102 101 100 98 95
79 80 81 81 82 83 83 83 84 84 84 83 83 84 84 84 84 85 85 86 86 87 87 87 87 86 86 86 87 87 88 88 89 89 90 90 91 91 92 93 93 92 91 90 89 89 90 92 93 95 96 98 99 100 99 98 96 94 91 90 91 93 96 98 99 98 97 96 96 96 95 95 95 98 101 104 107 108 106 104 100 98 95 92 88
81 82 82 82 82 82 83 83 83 84 84 84 84 85 85 86 86 87 87 88 88 88 88 89 89 89 89 89 89 90 90 90 91 92 93 94 95 95 95 96 96 95 93 91 90 91 92 93 95 96 98 100 101 102 101 99 97 94 92 90 90 92 95 97 97 96 95 95 95 94 94 94 97 101 104 105 106 104 100 95 91 87 84 82 80
82 83 82 82 83 83 83 84 84 85 85 85 86 86 87 87 88 89 89 89 90 90 90 91 91 91 92 92 92 93 92 92 93 94 96 97 97 97 96 96 96 96 95 93 92 92 94 96 98 100 101 102 103 102 101 100 99 97 95 93 92 92 94 96 96 95 94 94 93 94 96 97 99 101 101 99 95 91 86 82 80 79 78 78 78
83 83 83 83 84 85 85 85 86 86 86 87 87 87 88 89 90 91 91 91 92 92 93 93 93 94 94 94 95 95 95 95 95 95 95 94 94 94 95 96 98 99 99 98 97 98 99 101 102 102 103 103 103 102 101 100 99 98 96 94 93 92 92 93 93 93 93 94 95 96 97 97 96 97 95 91 87 83 80 79 79 79 79 80 81
85 85 86 86 87 87 87 88 88 88 88 89 90 91 91 92 92 93 93 93 94 94 95 95 95 96 96 96 96 96 95 93 91 90 90 92 94 97 100 103 104 104 105 105 103 102 102 103 103 103 104 104 103 102 101 100 99 98 97 94 92 91 90 90 91 92 93 93 94 93 92 92 91 90 89 87 85 83 82 82 83 83 84 85 86
88 89 89 89 90 90 90 90 90 91 92 92 93 93 93 93 93 93 93 94 94 94 95 95 96 97 97 97 96 94 91 88 88 92 97 102 106 109 110 110 109 107 106 106 104 103 103 103 104 104 105 105 104 103 101 100 98 95 93 91 89 88 88 89 90 92 92 91 89 88 87 86 86 85 85 85 86 86 87 87 88 88 88 88 88
92 92 92 92 92 92 92 93 93 93 93 94 94 93 93 93 92 91 91 91 92 93 94 96 97 99 98 95 90 88 88 91 96 102 107 110 111 113 113 112 110 109 107 105 104 103 103 103 104 104 104 103 102 100 97 94 91 89 88 87 87 87 88 89 90 90 89 88 86 85 84 84 84 85 87 88 89 90 90 89 89 89 89 89 89
94 94 95 95 95 95 95 95 94 94 94 94 93 92 90 89 88 89 89 91 92 95 97 99 100 99 96 92 89 90 94 99 103 107 109 110 111 112 110 108 107 107 106 104 102 100 100 100 100 99 97 95 93 90 88 86 85 85 86 86 87 87 87 88 87 87 86 86 86 85 86 87 88 89 91 91 91 91 90 90 89 89 88 88 88
97 98 98 98 98 97 96 95 94 94 93 91 89 87 87 87 89 90 92 93 95 97 98 100 99 96 93 93 94 97 99 102 107 111 112 112 111 109 107 104 102 102 101 98 96 94 93 91 90 88 87 86 85 84 84 84 85 86 86 87 87 87 87 87 87 87 87 88 89 90 91 92 93 93 93 92 91 90 89 89 88 88 87 87 87
100 100 99 98 97 96 95 94 92 91 89 87 87 87 89 90 92 93 95 96 97 98 98 98 98 97 96 96 97 99 101 107 112 114 113 111 109 105 101 99 96 94 92 89 88 86 85 84 83 83 84 84 85 85 86 86 87 87 87 88 88 88 89 89 90 91 92 93 94 95 95 95 94 93 92 91 90 89 88 87 86 86 86 86 87
99 98 97 96 95 94 93 91 89 88 87 88 90 91 92 94 95 96 96 97 98 98 98 98 98 98 98 98 98 102 108 114 115 112 108 106 101 95 90 88 87 85 84 83 83 83 83 83 84 85 86 86 87 88 89 89 89 90 90 91 91 92 93 94 95 97 98 99 98 97 96 94 93 92 91 90 89 87 86 85 85 85 85 86 86
96 95 95 94 93 91 90 89 88 89 90 91 93 94 95 96 97 97 98 98 99 99 99 99 99 99 99 101 105 110 113 113 109 104 99 94 89 84 82 81 81 81 81 81 82 82 83 85 85 86 87 88 89 90 91 91 92 93 94 95 97 98 99 101 102 102 102 100 98 96 94 92 91 90 89 87 86 85 84 84 84 84 84 84 84
95 94 93 91 89 88 88 89 90 91 93 94 95 96 97 98 99 99 99 99 100 100 101 102 102 103 105 107 109 109 106 102 98 94 90 87 84 82 81 80 80 81 82 83 84 85 85 86 87 88 89 90 92 93 95 96 98 100 101 102 103 104 105 104 103 102 99 96 94 92 90 89 87 86 85 84 83 82 82 82 82 82 81 81 80
92 90 89 88 88 89 90 91 92 93 95 96 98 99 100 101 102 102 102 102 103 104 105 105 105 105 105 103 101 98 95 92 90 87 85 84 83 82 82 83 84 85 86 87 88 89 90 91 93 94 95 96 97 99 101 103 104 105 105 105 105 104 102 100 97 94 91 89 87 86 84 83 82 81 81 80 80 80 79 78 78 77 76 76 75
89 88 88 89 91 91 92 93 94 96 98 100 101 102 103 104 104 104 105 106 106 105 104 102 100 98 96 93 91 90 88 87 86 86 85 85 86 86 88 89 90 92 93 95 97 98 99 100 101 102 103 104 104 105 105 105 105 104 102 100 98 96 93 90 87 85 83 82 81 80 79 79 78 78 78 77 76 75 74 73 73 72 72 71 71
91 91 92 93 93 93 95 97 99 101 103 104 105 105 105 105 105 105 104 104 102 100 98 96 94 92 90 89 88 88 87 87 87 88 89 91 93 95 97 99 100 102 103 104 105 106 106 106 106 106 106 106 105 104 103 102 100 97 94 92 89 87 84 82 80 78 78 77 77 76 76 76 75 74 73 72 71 70 69 69 69 69 69 69 69
94 95 95 96 97 99 101 103 104 105 105 105 105 104 103 102 102 100 99 98 96 95 93 91 90 89 89 89 89 90 90 92 93 95 97 99 101 103 105 107 108 108 108 108 108 107 106 106 105 104 103 101 100 98 96 94 92 89 87 84 82 80 78 77 76 75 75 75 74 74 73 72 71 70 69 68 68 68 68 68 68 68 68 68 68
98 100 101 102 104 105 105 105 104 104 103 102 100 99 98 97 95 94 94 93 92 91 91 90 90 91 92 93 95 96 98 100 102 103 105 106 107 108 108 108 108 108 107 106 106 104 103 102 100 98 97 95 93 91 89 87 85 83 81 79 77 76 75 74 73 73 73 72 72 72 71 70 69 68 68 67 67 67 67 67 67 67 67 67 66
104 104 105 105 104 104 103 102 101 100 98 97 95 93 92 92 91 91 91 91 91 92 93 94 95 97 98 100 102 104 105 106 107 107 107 107 107 107 106 106 105 104 103 102 101 99 97 95 93 91 89 87 85 83 82 80 79 78 77 76 75 74 73 72 72 72 71 71 70 70 69 68 68 67 66 66 66 65 65 65 65 65 65 64 64
106 106 105 104 103 101 100 98 96 95 93 92 90 89 89 90 90 91 93 94 95 97 99 100 102 103 104 105 106 107 107 107 107 106 105 105 103 102 101 100 98 97 95 93 91 90 88 86 84 82 80 79 78 77 75 74 74 73 73 73 72 72 72 71 71 70 70 70 69 68 68 67 66 66 65 65 64 64 64 63 63 62 62 61 60
106 105 104 102 100 97 95 93 92 90 90 89 90 91 92 94 96 98 99 101 102 103 104 105 106 106 106 106 106 105 104 103 102 100 98 96 94 93 91 89 88 86 85 84 82 80 79 78 77 75 74 73 72 72 71 71 71 70 70 70 70 70 70 70 70 70 69 69 68 68 67 66 65 64 64 63 62 62 61 60 59 58 57 56 55
100 98 97 95 93 92 91 91 90 91 92 94 95 97 99 101 103 104 105 106 106 107 106 106 105 104 102 101 99 97 95 93 91 89 87 85 84 83 81 80 79 78 77 76 74 73 71 70 68 68 67 66 66 66 67 67 68 68 68 69 68 68 68 69 68 68 68 67 67 66 65 63 63 62 61 60 59 58 57 56 55 54 53 52 52
91 90 89 89 90 90 91 93 95 96 99 101 102 103 105 106 106 106 106 106 105 103 102 100 97 95 93 90 88 86 84 82 80 79 77 75 74 73 72 71 70 68 67 66 65 63 62 61 61 61 61 61 61 62 62 63 64 65 66 66 67 67 67 67 67 66 66 65 64 63 62 61 60 59 57 56 55 53 52 51 51 51 50 50 50
88 89 90 92 94 95 98 99 101 102 104 105 105 106 106 105 104 102 100 98 95 93 91 88 86 84 82 80 78 76 73 71 69 67 65 64 63 63 62 61 60 60 59 59 59 59 59 59 59 59 59 59 59 60 61 62 63 63 64 65 65 65 65 65 65 64 63 62 61 60 59 57 56 55 54 53 51 49 49 49 49 48 48 48 48
93 94 96 98 100 101 103 104 104 104 104 104 103 102 100 97 94 91 89 86 84 82 80 78 76 73 71 69 66 64 63 62 61 60 60 60 60 60 60 60 60 60 60 60 60 61 61 61 61 61 60 60 60 60 60 61 62 62 63 63 64 64 64 63 63 62 61 60 59 57 56 54 53 52 50 49 48 47 47 47 47 47 47 47 47
Wind_Direction
281 278 276 275 274 274 273 272 272 272 273 274 274 274 273 273 272 271 271 272 272 273 274 275 276 278 279 279 280 281 282 283 283 284 284 285 285 285 285 285 285 286 286 286 286 286 286 286 287 287 287 287 287 287 287 287 288 289 289 289 289 288 288 288 288 288 288 287 287 287 286 286 287 287 288 289 290 290 290 290 290 289 289 290 290
281 278 276 275 274 272 271 272 272 273 273 273 273 272 271 271 270 270 272 272 274 275 276 277 277 278 279 279 280 280 281 282 282 283 284 284 285 285 285 285 285 286 286 286 286 285 286 286 286 286 285 285 285 285 286 286 287 287 287 287 287 287 287 287 287 287 287 287 286 286 286 285 286 286 287 288 289 289 289 289 289 289 289 289 289
281 279 277 276 275 272 271 271 272 272 273 273 272 271 271 271 272 273 274 275 277 278 278 278 279 279 279 279 280 280 280 281 282 283 283 284 284 285 285 285 285 285 285 285 284 284 284 284 284 284 284 284 285 285 286 286 286 286 286 286 286 286 287 287 287 287 287 286 286 286 285 285 286 286 286 287 288 288 288 288 288 287 287 287 287
281 279 277 276 275 274 273 273 273 274 274 274 273 273 273 273 274 276 276 277 278 278 278 279 279 279 279 279 279 280 281 281 282 283 284 284 285 285 285 285 284 284 284 284 284 284 284 284 284 283 283 284 284 284 285 285 285 285 285 285 286 286 286 286 286 286 286 286 285 285 285 285 286 286 286 287 287 287 287 286 286 286 285 285 285
279 277 276 275 274 275 275 274 274 275 275 274 274 274 274 275 276 277 278 278 278 278 278 278 278 279 279 279 280 281 282 282 283 284 284 285 285 285 285 284 284 284 284 284 284 284 284 284 284 284 284 284 284 284 284 284 284 284 284 284 284 284 285 285 285 285 284 284 284 285 285 285 285 286 286 287 287 287 286 286 285 284 284 283 282
281 279 277 275 275 275 275 275 275 274 274 274 274 274 275 276 277 277 277 277 277 277 278 279 279 280 280 281 282 283 283 284 284 285 285 285 285 284 284 284 284 283 283 283 284 284 284 284 284 285 285 285 285 285 285 284 284 284 284 284 284 284 284 284 284 283 283 283 284 284 285 285 286 286 287 287 287 287 286 286 285 284 283 282 282
288 287 284 281 279 277 276 275 274 274 274 274 274 275 276 276 277 277 277 277 278 278 279 279 279 280 281 282 283 283 284 284 284 284 284 284 284 284 283 283 283 283 283 283 284 284 284 284 285 285 285 285 285 285 285 285 285 285 285 284 284 284 284 284 284 283 283 283 284 284 284 285 285 286 287 287 287 287 286 285 284 284 283 283 282
291 290 289 287 284 281 279 278 278 277 276 276 276 276 276 276 276 276 276 277 278 278 278 279 280 280 281 282 283 283 283 284 284 284 284 284 283 283 283 283 284 284 284 284 284 284 284 285 285 285 284 284 284 284 284 284 284 285 285 285 284 284 284 284 284 283 283 284 284 284 284 285 285 285 286 286 286 285 284 284 283 283 283 282 282
290 290 288 286 283 281 280 280 279 278 277 276 276 276 276 276 276 276 277 278 278 279 279 280 281 282 282 282 283 283 284 284 284 284 284 284 284 284 284 284 285 285 285 285 285 285 285 284 284 284 284 283 283 283 283 283 284 284 284 284 284 284 283 283 283 283 283 283 284 284 284 284 284 284 284 284 283 283 282 282 282 281 281 281 281
286 284 283 281 279 278 278 277 276 275 275 275 275 275 276 276 277 277 278 279 279 280 280 281 281 282 282 282 283 283 284 284 284 284 284 284 284 285 285 285 285 285 285 284 284 284 284 284 284 284 284 283 283 283 283 283 283 283 283 283 283 283 283 283 283 283 283 283 283 284 284 284 284 283 283 282 281 280 280 280 280 279 279 279 279
279 277 276 274 274 274 274 274 274 274 274 274 275 275 275 276 277 278 278 279 279 279 280 280 281 281 281 281 281 282 282 283 283 284 284 284 284 284 284 284 284 283 283 283 283 283 283 283 283 283 283 283 283 283 282 282 282 282 282 282 282 281 281 281 282 282 282 283 283 283 283 283 283 282 282 281 280 280 279 279 279 278 278 278 277
274 273 271 271 272 272 272 272 273 273 273 274 274 275 275 276 277 277 278 278 278 278 278 279 279 279 279 279 280 280 281 281 282 283 283 283 283 283 282 282 282 282 281 281 281 281 281 281 282 281 281 281 281 281 280 280 280 280 280 280 280 280 280 280 280 281 281 282 282 282 282 282 282 281 281 280 280 279 279 278 278 278 277 277 276
274 273 272 273 273 273 273 273 273 273 274 274 275 275 276 276 276 277 277 277 277 277 277 278 278 278 279 279 279 280 281 282 282 282 282 282 281 281 281 281 281 281 281 281 281 281 281 281 280 280 280 279 279 279 279 278 278 278 278 278 278 278 278 279 280 280 281 281 281 281 281 281 281 280 280 280 280 280 280 279 279 278 277 276 276
278 277 276 276 276 276 276 275 275 275 275 276 276 277 277 277 277 277 277 277 278 278 278 279 280 280 281 281 281 282 283 283 282 281 281 280 279 279 279 280 280 281 281 282 282 282 281 281 280 280 279 279 278 278 278 277 277 277 277 277 277 278 278 279 280 280 280 280 280 280 280 280 280 280 280 280 280 279 279 279 278 277 277 277 276
281 281 281 280 279 278 277 277 276 277 277 277 277 277 278 278 278 279 279 280 281 281 282 282 282 282 282 282 283 283 282 282 281 280 280 280 280 280 280 281 282 282 283 283 283 282 282 281 281 281 280 279 279 278 278 277 277 277 277 278 278 278 279 280 280 280 280 280 280 280 280 279 279 279 278 278 278 278 278 278 278 278 278 278 278
283 283 282 281 280 280 279 279 279 279 279 280 280 281 281 282 282 282 282 283 283 283 283 282 282 282 282 282 282 282 281 281 281 281 281 281 282 282 282 283 283 283 283 283 283 282 282 282 281 281 280 280 279 278 278 278 278 278 278 278 279 279 279 279 279 279 279 279 279 279 279 278 278 278 278 278 278 278 278 278 278 278 278 278 278
283 283 282 282 281 281 281 281 281 281 282 282 282 283 283 283 283 283 283 283 282 282 281 281 281 281 281 281 281 281 281 282 282 283 283 283 283 283 283 283 282 282 282 282 282 282 282 282 282 281 281 280 279 279 279 279 279 279 279 279 279 279 279 279 278 278 278 278 278 278 278 278 278 278 278 278 278 277 277 277 277 277 278 278 278
281 281 281 281 281 281 281 281 281 281 281 280 280 280 281 281 281 281 281 281 280 280 280 280 280 280 281 281 282 282 282 283 283 283 283 283 283 282 282 282 282 282 282 282 282 282 282 282 282 281 281 280 280 279 279 279 279 279 279 279 278 278 278 278 278 277 277 277 277 277 277 277 277 277 277 277 277 277 277 277 278 278 279 279 280
280 280 279 279 279 279 279 279 278 278 278 278 279 279 280 280 280 281 281 281 281 281 281 281 281 282 282 282 282 282 282 282 282 282 282 282 281 281 281 282 282 282 282 282 282 282 282 282 282 282 281 281 280 280 280 279 279 278 278 278 278 278 278 278 277 277 277 277 277 277 276 276 276 276 276 276 277 277 278 278 278 279 280 280 280
281 280 280 280 280 279 278 278 277 277 277 278 279 280 280 281 281 281 282 282 282 282 282 282 281 281 281 281 282 282 282 281 281 281 281 281 281 281 282 282 283 283 283 283 283 283 283 283 283 282 282 281 281 280 279 279 278 278 278 278 277 277 276 276 275 275 275 276 276 276 276 277 277 277 277 278 278 278 278 278 279 279 279 279 279
281 281 281 281 280 280 279 278 278 278 278 278 279 280 280 281 281 281 281 281 281 281 281 281 280 280 280 281 281 281 281 281 281 281 281 281 281 281 281 282 282 282 282 283 284 284 284 284 283 283 282 282 281 280 279 278 277 276 276 275 274 274 273 274 274 274 274 275 276 276 277 278 278 278 279 279 278 278 278 278 278 278 278 278 278
281 281 280 280 280 280 279 279 279 279 279 279 280 281 281 282 282 282 282 281 281 281 281 281 281 280 280 280 280 280 280 280 280 280 280 280 280 280 280 281 281 282 283 283 284 284 284 283 283 282 282 281 281 280 279 278 277 276 276 276 275 275 276 276 277 277 278 279 280 280 281 281 281 280 279 279 278 278 278 277 277 277 277 277 277
280 280 279 279 279 279 279 279 279 279 279 280 281 282 282 283 283 283 283 283 283 283 282 282 282 281 280 280 279 279 278 278 278 278 278 278 278 278 279 279 280 282 282 283 283 283 283 283 284 284 284 284 283 283 282 281 281 280 280 280 280 280 280 280 280 280 281 281 282 283 283 282 281 280 279 279 279 278 278 277 276 276 276 276 277
280 279 279 279 280 280 280 280 280 280 281 282 282 283 283 283 283 283 283 283 284 284 284 283 282 282 281 280 280 279 279 279 279 279 278 278 278 278 278 279 280 282 283 283 284 285 286 286 287 287 287 286 286 285 285 285 284 284 283 282 282 281 280 280 279 279 279 280 280 280 279 279 278 278 278 278 279 279 279 278 278 277 277 277 277
279 279 280 280 281 281 281 281 281 282 282 283 284 284 284 284 284 284 284 285 285 285 285 285 284 283 283 282 281 281 281 281 281 281 280 280 280 280 281 281 282 283 284 285 286 287 287 288 288 287 287 286 286 285 285 285 284 284 283 282 281 280 279 278 277 276 276 277 276 276 276 277 276 276 276 277 278 279 278 278 277 277 277 277 277
279 279 280 281 281 282 282 282 283 283 284 284 284 285 284 284 285 285 286 286 287 287 287 286 286 285 284 283 283 283 284 284 284 284 283 283 283 283 284 284 285 285 286 287 287 288 288 288 288 287 287 286 286 285 284 283 282 282 281 279 278 278 276 275 274 274 274 274 274 275 276 276 277 277 277 276 276 275 275 275 275 275 275 276 276
280 280 281 281 281 282 282 282 283 284 284 285 285 285 285 285 285 286 286 287 287 287 287 287 286 285 285 285 285 285 286 286 286 286 286 286 286 286 286 287 287 287 287 287 287 287 287 288 288 287 287 287 286 285 284 283 282 281 280 278 277 276 275 274 274 273 273 273 274 274 275 277 279 281 281 278 276 275 275 274 274 274 274 274 275
281 282 282 282 282 282 283 283 284 284 284 285 285 284 284 285 285 285 286 286 287 287 286 286 286 285 285 285 285 286 286 286 286 287 287 287 287 287 287 287 287 287 287 286 286 286 287 287 287 287 287 287 286 285 284 282 281 280 279 278 277 276 275 274 274 274 274 274 275 276 278 281 284 285 283 279 276 275 275 274 274 274 275 275 276
282 282 283 283 283 283 283 284 284 284 284 284 284 283 284 284 285 285 286 286 286 286 285 285 285 285 285 285 285 285 285 286 286 286 286 286 286 286 286 287 287 287 286 285 284 284 285 286 286 286 286 285 285 284 283 282 281 280 279 278 277 275 274 274 274 274 275 276 278 280 283 284 284 283 281 277 275 275 275 275 275 276 277 277 278
283 284 284 284 284 284 284 284 284 284 284 284 284 284 284 284 285 285 286 286 286 285 285 285 285 285 285 285 285 285 286 286 286 286 286 286 287 287 288 288 288 287 286 285 283 283 284 285 285 285 285 284 284 283 282 281 280 280 279 278 277 275 274 274 274 275 276 279 281 282 282 281 280 278 276 275 274 275 275 277 278 279 280 281 282
285 285 286 286 286 285 285 285 285 284 284 284 284 284 285 285 285 286 286 286 286 286 286 286 286 286 286 286 286 287 287 287 287 287 288 289 290 290 290 289 288 287 285 284 283 282 283 285 285 285 285 284 283 282 281 280 279 278 278 277 276 275 274 274 275 276 277 278 279 278 278 277 276 275 275 275 276 277 279 281 283 284 284 285 285
287 287 287 286 286 286 285 285 284 284 284 284 284 284 285 285 285 285 285 286 286 287 287 287 287 287 287 286 286 286 287 287 289 290 292 292 292 291 290 289 288 287 285 284 284 284 284 284 284 284 283 282 281 280 278 277 276 275 275 274 274 274 274 275 275 275 275 275 275 275 275 275 275 275 276 278 279 281 283 284 285 286 286 286 286
286 286 285 285 284 284 284 283 283 283 283 283 283 284 284 284 285 285 286 287 288 288 289 289 289 288 286 285 285 286 287 289 291 292 292 292 291 290 288 287 287 286 285 285 284 284 283 283 282 281 280 278 277 275 274 273 273 273 273 274 274 274 273 273 273 273 274 274 274 275 276 276 277 279 280 282 283 284 285 286 286 286 286 285 285
285 284 284 284 283 283 283 283 283 283 283 283 283 283 284 285 286 288 288 289 289 290 290 289 288 286 284 283 284 285 287 289 291 292 291 290 288 286 285 284 284 284 283 283 282 281 281 280 278 277 275 274 273 272 272 272 272 273 273 272 272 272 272 272 272 273 274 275 276 278 279 280 281 283 284 285 286 286 285 285 285 285 284 284 283
284 284 284 284 284 283 283 283 283 283 283 283 284 285 286 287 288 289 289 290 290 291 290 288 285 283 281 282 283 284 285 289 293 294 292 290 287 284 283 282 283 283 282 281 280 279 278 277 276 275 274 273 273 273 273 272 272 271 271 271 272 272 272 273 274 275 276 278 280 282 283 284 285 285 286 286 285 285 284 284 283 283 282 281 281
284 284 284 283 283 283 283 283 283 283 283 284 285 286 287 288 289 289 289 289 289 289 288 286 284 282 282 282 282 283 286 291 294 295 292 288 285 283 281 281 281 281 280 280 280 279 278 277 276 275 275 274 273 272 271 271 271 271 272 272 273 274 275 276 277 279 280 282 283 284 285 285 285 285 285 284 283 283 282 281 281 280 279 279 278
284 283 283 283 283 283 283 283 283 283 284 284 286 287 288 288 289 289 289 288 287 286 284 283 283 282 282 282 284 286 289 292 294 292 288 284 281 280 279 278 278 277 277 277 277 277 276 275 274 273 273 272 272 271 271 271 272 273 274 275 276 277 279 280 281 282 283 284 285 285 285 285 284 283 283 282 281 280 279 279 278 277 277 276 276
283 283 283 283 283 283 282 283 283 284 284 285 286 287 288 289 289 289 288 288 287 286 284 282 282 282 283 285 287 289 291 291 289 286 282 279 278 277 276 275 274 274 273 273 272 272 272 272 271 271 271 271 271 272 273 274 275 276 278 279 280 281 282 282 283 284 284 284 284 283 283 282 281 281 280 279 278 277 276 276 275 275 275 275 275
283 283 282 282 282 282 282 283 284 285 285 286 287 288 288 289 289 288 288 287 286 285 284 284 284 285 286 287 288 288 287 286 283 280 278 276 275 274 273 273 272 272 272 272 272 272 271 272 272 272 273 273 274 276 277 278 279 280 280 281 281 282 282 282 282 282 282 281 281 280 279 279 278 277 277 276 275 274 274 273 273 274 274 275 276
282 282 281 282 282 283 284 284 285 286 287 287 288 289 289 289 288 287 286 286 285 285 284 285 285 285 285 285 284 282 281 279 277 275 274 273 273 273 273 274 275 275 275 276 276 276 276 277 277 277 277 278 278 278 279 279 280 280 280 280 280 280 280 280 279 279 279 278 278 277 276 276 275 274 274 273 273 273 273 274 274 275 276 277 278
282 282 282 283 283 284 285 285 286 287 288 288 288 288 287 286 286 285 285 285 284 284 283 283 282 282 281 280 278 277 276 275 274 274 275 276 277 278 279 280 281 281 282 282 282 282 282 282 282 282 281 281 281 280 280 280 279 279 279 279 278 278 278 277 277 276 276 275 275 274 274 274 273 273 273 274 274 275 276 276 277 278 279 280 282
283 283 284 284 285 285 286 286 287 287 287 287 286 285 285 284 284 283 283 282 282 281 281 280 279 279 278 277 276 276 276 277 278 279 280 281 283 284 284 285 285 285 285 285 285 285 284 284 283 283 282 282 281 280 279 279 278 278 277 277 277 276 276 275 274 274 273 273 273 273 273 273 274 275 275 276 277 277 278 278 279 280 282 283 284
284 284 285 286 286 287 287 287 287 286 285 285 284 283 282 282 281 280 280 280 280 279 279 279 278 279 279 279 280 281 281 282 283 284 285 286 286 287 287 287 287 287 286 285 285 284 283 282 282 281 280 279 279 278 278 277 277 276 276 275 275 274 274 273 273 272 272 272 273 273 274 275 276 277 277 278 278 278 279 280 281 282 284 285 286
285 286 287 287 288 288 287 286 285 284 283 282 281 280 280 279 279 279 279 279 280 280 280 281 281 282 284 285 285 286 287 287 288 288 288 288 288 288 287 287 286 285 284 283 282 281 281 280 280 279 279 278 278 277 277 277 276 276 275 275 274 273 273 272 272 272 272 272 273 274 275 276 276 277 277 278 278 279 281 282 283 284 285 286 287
287 288 288 287 287 286 284 283 282 281 280 280 280 279 280 280 280 281 281 282 283 284 285 286 286 287 288 289 289 290 290 290 289 289 288 288 287 286 285 284 283 282 282 281 281 281 280 280 279 279 279 278 278 277 277 276 276 275 275 274 273 273 272 272 272 272 272 273 274 274 275 276 276 277 278 279 280 281 282 283 284 285 286 287 287
287 287 286 285 284 283 282 281 281 280 280 280 281 282 283 284 285 286 287 288 288 289 289 290 290 290 290 290 290 290 289 288 288 287 286 285 284 283 283 282 282 281 281 281 280 280 280 280 279 279 278 278 277 276 276 275 274 274 273 272 272 272 271 271 271 272 272 273 274 274 275 276 277 278 279 279 280 281 282 283 284 285 285 285 285
284 284 283 282 281 281 281 281 281 282 283 284 285 286 287 288 289 290 291 291 291 291 291 291 291 290 290 289 288 288 287 286 285 285 284 283 283 282 282 282 281 281 281 280 280 280 279 279 278 278 277 277 276 275 275 274 273 272 272 271 271 271 271 271 271 271 272 272 273 274 276 277 277 278 279 279 280 281 282 282 283 283 282 282 282
281 280 280 280 281 281 282 283 284 285 287 288 289 290 291 291 292 292 292 292 292 291 291 290 289 289 288 287 287 286 286 285 285 284 284 284 283 283 282 282 281 281 280 280 280 279 279 278 278 278 277 277 276 275 274 273 273 272 271 271 270 270 270 270 270 271 271 272 273 274 275 276 277 277 278 279 279 280 280 280 280 280 280 280 280
280 281 282 283 284 285 286 287 288 289 290 291 292 292 292 292 292 292 291 291 291 290 290 289 289 288 288 287 287 287 286 286 286 285 285 284 284 283 283 282 282 281 281 280 280 280 279 279 279 278 278 277 277 276 275 274 273 272 271 270 270 269 269 269 270 270 271 272 273 274 275 275 276 276 277 277 278 278 278 277 277 278 278 278 279
284 285 286 287 288 289 290 291 291 292 292 292 292 292 292 292 291 291 291 290 290 290 289 289 289 288 288 288 287 287 287 287 287 287 286 286 285 285 284 284 283 282 281 280 280 280 280 280 280 280 279 279 278 277 275 274 273 272 271 270 269 269 268 269 269 270 270 271 272 273 273 274 274 274 275 275 275 275 275 275 275 276 277 278 279
288 289 290 291 291 292 292 292 292 292 292 292 292 292 292 291 291 291 291 291 290 290 289 289 289 289 288 288 288 288 288 288 288 288 288 287 287 286 285 284 283 282 281 280 280 280 280 280 280 280 280 279 278 277 275 274 273 271 271 270 269 268 268 268 268 268 269 270 270 271 272 272 272 272 273 273 272 272 273 273 274 275 276 277 279
Height
5696 5695 5695 5695 5695 5695 5695 5694 5694 5694 5694 5695 5695 5695 5694 5693 5693 5692 5692 5692 5691 5691 5692 5691 5691 5690 5690 5690 5690 5689 5688 5687 5686 5685 5685 5684 5683 5682 5682 5681 5680 5679 5677 5677 5676 5674 5673 5672 5671 5670 5668 5667 5666 5665 5663 5662 5661 5659 5658 5657 5656 5655 5654 5653 5653 5652 5652 5651 5651 5650 5650 5648 5647 5646 5644 5642 5641 5641 5640 5638 5637 5635 5634 5633 5632
5691 5691 5690 5691 5691 5691 5690 5690 5690 5690 5690 5690 5690 5690 5689 5688 5687 5687 5687 5687 5687 5687 5687 5686 5686 5686 5686 5685 5685 5684 5683 5682 5681 5680 5679 5679 5678 5677 5676 5675 5674 5673 5672 5671 5669 5668 5667 5666 5664 5663 5662 5660 5659 5658 5657 5655 5654 5652 5651 5649 5648 5647 5646 5645 5645 5644 5643 5643 5642 5641 5641 5640 5639 5638 5637 5635 5634 5632 5631 5630 5628 5627 5626 5625 5623
5686 5686 5686 5686 5686 5686 5686 5686 5685 5685 5685 5685 5685 5685 5684 5683 5682 5683 5683 5682 5682 5682 5681 5681 5681 5680 5680 5680 5679 5678 5677 5676 5675 5674 5674 5673 5672 5671 5670 5669 5668 5667 5665 5664 5662 5661 5660 5659 5658 5656 5655 5653 5652 5651 5649 5648 5646 5645 5643 5642 5640 5639 5638 5637 5636 5635 5635 5634 5633 5632 5631 5630 5630 5629 5628 5627 5626 5624 5622 5621 5619 5618 5616 5615 5614
5681 5681 5681 5681 5681 5681 5681 5681 5681 5681 5681 5680 5680 5679 5678 5678 5678 5678 5678 5677 5677 5676 5675 5675 5675 5674 5674 5673 5672 5671 5670 5670 5669 5668 5667 5666 5665 5664 5663 5662 5661 5659 5658 5657 5655 5654 5653 5652 5650 5649 5647 5646 5645 5643 5642 5640 5639 5637 5636 5634 5633 5631 5630 5629 5628 5627 5626 5625 5624 5622 5621 5620 5619 5618 5618 5617 5616 5615 5613 5611 5610 5608 5606 5605 5603
5676 5676 5677 5677 5677 5677 5677 5676 5676 5676 5676 5675 5675 5674 5673 5673 5673 5673 5672 5672 5671 5670 5669 5669 5668 5667 5667 5666 5665 5664 5663 5662 5661 5661 5660 5659 5658 5657 5655 5654 5653 5651 5650 5649 5647 5646 5644 5643 5642 5641 5639 5638 5637 5636 5634 5633 5631 5630 5628 5627 5625 5624 5622 5621 5620 5618 5617 5616 5615 5613 5612 5610 5609 5608 5607 5606 5605 5604 5602 5601 5599 5597 5596 5594 5592
5672 5672 5672 5672 5672 5672 5671 5671 5671 5670 5670 5669 5669 5668 5668 5667 5667 5667 5666 5665 5665 5664 5663 5662 5661 5660 5660 5659 5658 5657 5656 5654 5654 5653 5652 5651 5650 5648 5647 5646 5644 5643 5641 5640 5639 5637 5636 5635 5633 5632 5631 5630 5628 5626 5625 5624 5622 5622 5620 5619 5617 5616 5614 5613 5611 5610 5609 5607 5606 5605 5603 5601 5599 5598 5597 5595 5594 5593 5591 5590 5588 5586 5585 5583 5581
5667 5667 5667 5667 5667 5666 5666 5665 5665 5664 5664 5663 5662 5662 5661 5661 5660 5660 5659 5658 5658 5657 5657 5655 5654 5653 5653 5652 5651 5649 5648 5647 5646 5645 5644 5642 5641 5640 5638 5637 5635 5633 5632 5631 5629 5628 5627 5625 5624 5623 5621 5620 5618 5616 5614 5613 5612 5611 5610 5609 5608 5607 5605 5604 5603 5601 5600 5598 5597 5596 5594 5593 5591 5589 5587 5585 5583 5582 5581 5578 5577 5576 5574 5573 5571
5661 5661 5661 5661 5660 5660 5659 5658 5658 5657 5657 5657 5656 5656 5655 5654 5654 5653 5652 5652 5651 5650 5649 5648 5647 5646 5645 5644 5643 5641 5640 5639 5638 5636 5635 5633 5632 5631 5629 5627 5626 5624 5623 5621 5620 5618 5617 5615 5614 5613 5611 5609 5608 5606 5604 5602 5601 5600 5599 5598 5597 5596 5595 5594 5593 5591 5590 5588 5587 5586 5584 5583 5581 5579 5577 5575 5573 5571 5569 5567 5565 5564 5564 5562 5561
5655 5655 5655 5655 5654 5653 5652 5652 5652 5651 5651 5650 5650 5649 5648 5647 5646 5646 5645 5645 5644 5643 5642 5640 5639 5639 5638 5636 5635 5633 5632 5631 5630 5628 5626 5625 5623 5621 5620 5618 5617 5616 5614 5612 5610 5609 5607 5606 5605 5603 5601 5599 5598 5596 5594 5592 5591 5589 5588 5587 5585 5584 5583 5582 5581 5579 5578 5577 5575 5574 5572 5571 5570 5568 5566 5565 5562 5559 5557 5555 5553 5553 5552 5550 5550
5650 5649 5649 5649 5648 5647 5646 5646 5645 5644 5644 5643 5642 5641 5640 5640 5639 5638 5638 5637 5636 5635 5633 5632 5631 5630 5629 5627 5626 5625 5624 5622 5621 5619 5617 5615 5614 5612 5611 5609 5608 5606 5604 5603 5601 5600 5598 5597 5595 5594 5592 5590 5588 5586 5584 5583 5581 5579 5578 5576 5575 5573 5572 5570 5569 5568 5566 5565 5563 5562 5560 5559 5558 5556 5554 5553 5550 5547 5546 5544 5542 5541 5539 5538 5537
5643 5643 5642 5641 5640 5639 5639 5638 5637 5637 5636 5635 5634 5633 5632 5632 5631 5630 5630 5629 5627 5626 5624 5623 5622 5621 5619 5618 5616 5615 5614 5613 5610 5609 5607 5605 5604 5602 5601 5600 5598 5597 5595 5594 5592 5590 5589 5587 5586 5584 5582 5580 5578 5576 5574 5572 5571 5569 5567 5566 5564 5562 5560 5559 5557 5556 5554 5553 5551 5550 5548 5546 5545 5543 5541 5539 5538 5536 5534 5533 5531 5529 5528 5527 5525
5637 5636 5635 5634 5633 5632 5631 5630 5630 5629 5628 5627 5626 5625 5624 5624 5623 5622 5621 5619 5618 5616 5615 5614 5612 5611 5609 5608 5607 5606 5604 5602 5600 5598 5597 5595 5593 5592 5590 5589 5588 5587 5585 5584 5582 5581 5579 5577 5576 5574 5572 5570 5568 5566 5564 5562 5560 5558 5556 5554 5552 5550 5549 5547 5545 5544 5543 5541 5539 5538 5536 5534 5532 5530 5528 5526 5524 5523 5522 5521 5520 5518 5516 5515 5513
5630 5629 5628 5627 5627 5625 5624 5623 5622 5621 5620 5619 5618 5617 5616 5615 5614 5612 5611 5610 5608 5607 5605 5604 5603 5601 5600 5599 5598 5596 5594 5592 5590 5588 5586 5584 5582 5581 5579 5578 5577 5576 5575 5574 5572 5570 5569 5567 5565 5563 5561 5559 5556 5554 5552 5550 5548 5546 5544 5542 5540 5538 5537 5535 5534 5532 5530 5528 5527 5525 5524 5522 5519 5517 5516 5514 5512 5511 5510 5508 5507 5505 5503 5502 5501
5624 5622 5622 5621 5620 5618 5616 5615 5614 5613 5612 5611 5610 5609 5607 5606 5605 5603 5602 5600 5599 5598 5597 5596 5594 5593 5591 5590 5588 5587 5585 5583 5581 5578 5576 5573 5571 5570 5568 5567 5567 5565 5564 5562 5560 5559 5557 5555 5553 5551 5549 5546 5544 5542 5540 5537 5535 5533 5531 5530 5528 5526 5525 5523 5522 5520 5518 5516 5514 5513 5512 5510 5507 5505 5504 5502 5500 5498 5497 5496 5494 5492 5489 5488 5487
5617 5616 5615 5614 5612 5610 5609 5608 5607 5606 5605 5604 5602 5601 5599 5598 5596 5595 5594 5593 5591 5590 5588 5587 5585 5583 5582 5580 5578 5577 5576 5573 5570 5567 5565 5562 5560 5558 5557 5556 5555 5554 5552 5550 5548 5546 5544 5542 5540 5538 5536 5534 5532 5529 5527 5525 5522 5520 5519 5517 5515 5514 5512 5511 5510 5507 5505 5504 5502 5500 5499 5497 5495 5494 5492 5490 5488 5486 5484 5482 5480 5478 5475 5473 5472
5609 5608 5607 5605 5604 5602 5601 5601 5600 5599 5597 5596 5595 5593 5591 5590 5588 5586 5586 5584 5582 5581 5579 5577 5576 5574 5571 5570 5568 5567 5565 5562 5559 5556 5553 5550 5547 5545 5544 5543 5542 5541 5539 5537 5535 5533 5531 5529 5527 5525 5523 5521 5519 5516 5514 5512 5510 5508 5507 5505 5503 5501 5500 5499 5497 5495 5492 5491 5489 5488 5487 5485 5483 5481 5479 5477 5476 5474 5472 5470 5467 5465 5462 5459 5458
5601 5600 5598 5596 5595 5594 5593 5593 5592 5590 5589 5587 5586 5584 5582 5581 5579 5577 5576 5575 5573 5571 5569 5567 5565 5563 5561 5559 5557 5556 5553 5550 5547 5544 5541 5537 5534 5532 5531 5530 5529 5528 5526 5524 5522 5520 5518 5516 5514 5512 5510 5508 5505 5503 5501 5499 5497 5496 5494 5492 5490 5489 5487 5486 5484 5482 5480 5478 5476 5475 5473 5472 5470 5469 5467 5465 5463 5462 5460 5456 5454 5453 5449 5446 5445
5592 5591 5589 5587 5586 5586 5585 5584 5582 5580 5579 5577 5575 5573 5572 5570 5568 5566 5565 5564 5562 5559 5557 5556 5554 5552 5550 5548 5545 5543 5541 5538 5535 5532 5528 5525 5521 5519 5518 5517 5516 5515 5513 5511 5509 5507 5505 5503 5501 5499 5497 5495 5492 5490 5489 5488 5485 5484 5482 5479 5477 5476 5475 5474 5472 5469 5467 5465 5463 5461 5460 5459 5458 5456 5454 5452 5451 5450 5447 5442 5441 5440 5436 5432 5431
5583 5581 5579 5577 5576 5576 5575 5573 5571 5569 5568 5566 5564 5562 5561 5558 5557 5555 5553 5551 5549 5547 5545 5543 5542 5539 5537 5535 5532 5530 5528 5525 5522 5519 5516 5513 5509 5506 5505 5504 5504 5503 5500 5498 5496 5495 5493 5491 5489 5486 5484 5482 5479 5477 5477 5476 5474 5472 5469 5467 5465 5463 5463 5461 5458 5456 5454 5452 5450 5449 5448 5447 5445 5442 5440 5438 5437 5437 5433 5428 5427 5427 5423 5418 5416
5573 5571 5569 5567 5566 5565 5563 5561 5560 5558 5557 5555 5554 5552 5550 5547 5545 5544 5542 5540 5538 5536 5533 5531 5530 5527 5525 5522 5520 5518 5516 5513 5510 5507 5504 5501 5497 5494 5492 5492 5492 5490 5488 5486 5485 5483 5481 5479 5477 5474 5472 5469 5466 5464 5464 5463 5462 5459 5457 5455 5453 5451 5450 5448 5445 5444 5442 5440 5438 5437 5435 5433 5431 5428 5425 5424 5423 5422 5418 5414 5412 5412 5409 5405 5402
5561 5559 5557 5556 5554 5552 5551 5549 5548 5546 5545 5544 5542 5541 5539 5536 5534 5532 5530 5528 5526 5524 5522 5520 5518 5516 5514 5511 5509 5507 5503 5500 5497 5494 5491 5489 5485 5482 5480 5480 5479 5477 5476 5475 5473 5471 5469 5467 5464 5461 5459 5456 5454 5452 5450 5451 5450 5448 5446 5444 5441 5437 5436 5435 5432 5431 5430 5427 5425 5423 5421 5419 5416 5413 5411 5409 5407 5407 5404 5400 5398 5397 5395 5391 5388
5549 5547 5545 5543 5541 5540 5538 5536 5534 5533 5531 5530 5529 5528 5526 5523 5521 5519 5517 5515 5514 5512 5510 5508 5506 5504 5502 5500 5497 5495 5491 5488 5485 5482 5479 5477 5474 5471 5469 5468 5467 5465 5464 5464 5462 5460 5457 5454 5451 5448 5446 5444 5441 5439 5437 5437 5438 5437 5434 5430 5426 5424 5423 5422 5419 5417 5415 5412 5410 5408 5405 5403 5401 5397 5395 5394 5392 5391 5390 5387 5384 5382 5380 5377 5373
5537 5535 5533 5531 5529 5528 5526 5524 5522 5520 5518 5517 5516 5514 5512 5510 5508 5506 5504 5502 5500 5499 5497 5495 5493 5491 5489 5487 5484 5482 5479 5476 5473 5470 5467 5464 5461 5459 5457 5456 5455 5454 5452 5451 5450 5447 5445 5442 5439 5435 5432 5430 5428 5425 5423 5421 5424 5425 5422 5416 5412 5410 5410 5408 5405 5402 5400 5397 5395 5393 5390 5388 5385 5382 5381 5380 5378 5376 5375 5373 5370 5368 5365 5362 5359
5526 5524 5521 5519 5518 5516 5514 5512 5509 5508 5506 5504 5503 5501 5498 5497 5495 5492 5491 5489 5487 5486 5484 5481 5480 5478 5476 5474 5472 5469 5466 5464 5461 5458 5454 5451 5448 5446 5443 5442 5442 5441 5439 5437 5436 5434 5431 5428 5425 5421 5418 5416 5413 5411 5408 5405 5407 5410 5408 5402 5397 5396 5396 5394 5389 5387 5385 5382 5380 5378 5375 5373 5370 5368 5367 5365 5364 5362 5360 5357 5356 5353 5350 5348 5345
5514 5512 5510 5507 5505 5503 5501 5499 5497 5495 5493 5491 5489 5487 5485 5483 5482 5479 5477 5476 5474 5472 5470 5468 5466 5464 5462 5460 5458 5455 5453 5450 5447 5444 5441 5437 5434 5432 5428 5426 5427 5427 5425 5423 5421 5419 5416 5413 5410 5407 5404 5401 5399 5397 5394 5391 5390 5393 5394 5389 5382 5381 5381 5378 5372 5370 5369 5367 5364 5362 5360 5358 5355 5353 5353 5352 5350 5348 5345 5342 5340 5338 5336 5334 5331
5502 5501 5498 5496 5493 5491 5488 5486 5484 5482 5480 5478 5476 5474 5471 5469 5467 5465 5463 5461 5459 5457 5455 5453 5451 5450 5448 5446 5443 5441 5438 5436 5432 5429 5425 5421 5419 5417 5413 5410 5411 5412 5411 5409 5407 5404 5401 5398 5395 5392 5389 5387 5384 5382 5380 5377 5374 5376 5379 5376 5370 5368 5366 5361 5356 5354 5352 5351 5349 5346 5344 5342 5341 5339 5338 5337 5335 5332 5329 5326 5324 5322 5321 5319 5316
5490 5488 5486 5484 5481 5479 5476 5474 5471 5469 5467 5464 5462 5459 5457 5455 5453 5451 5449 5447 5445 5442 5440 5438 5436 5434 5432 5430 5428 5425 5423 5421 5417 5414 5409 5406 5404 5402 5398 5395 5394 5395 5396 5395 5392 5389 5385 5383 5380 5377 5374 5371 5368 5366 5364 5361 5358 5358 5360 5360 5358 5354 5349 5344 5340 5338 5336 5335 5333 5331 5329 5328 5326 5325 5324 5322 5319 5316 5313 5311 5308 5306 5304 5303 5301
5477 5475 5473 5471 5468 5466 5464 5461 5459 5456 5454 5451 5449 5446 5444 5442 5439 5437 5435 5433 5431 5428 5426 5424 5421 5419 5417 5415 5413 5411 5409 5407 5403 5399 5395 5392 5390 5387 5384 5382 5380 5379 5380 5380 5377 5373 5369 5367 5365 5362 5360 5356 5352 5349 5347 5345 5343 5342 5343 5343 5342 5340 5333 5327 5324 5322 5320 5320 5318 5317 5315 5313 5311 5309 5308 5305 5303 5300 5298 5295 5293 5291 5290 5288 5287
5465 5462 5460 5457 5455 5453 5451 5448 5446 5443 5441 5438 5436 5433 5431 5428 5426 5423 5421 5419 5417 5414 5412 5410 5408 5405 5403 5401 5399 5397 5395 5394 5390 5385 5382 5379 5376 5373 5371 5368 5366 5364 5365 5365 5362 5358 5355 5353 5351 5348 5345 5342 5337 5333 5330 5328 5327 5326 5326 5325 5325 5323 5318 5313 5309 5307 5305 5305 5304 5302 5301 5299 5296 5294 5292 5290 5287 5285 5284 5281 5279 5278 5276 5274 5272
5451 5448 5446 5444 5441 5439 5437 5434 5432 5430 5427 5424 5422 5420 5417 5415 5412 5409 5406 5404 5403 5400 5398 5396 5394 5391 5389 5386 5384 5382 5381 5379 5376 5372 5369 5366 5363 5360 5358 5355 5353 5351 5350 5348 5346 5344 5341 5338 5335 5333 5330 5326 5322 5317 5314 5312 5310 5309 5308 5308 5307 5306 5303 5299 5295 5292 5291 5290 5289 5288 5286 5284 5282 5279 5277 5275 5273 5271 5270 5268 5265 5264 5262 5260 5258
5436 5434 5432 5429 5427 5425 5422 5420 5418 5415 5412 5410 5408 5405 5403 5401 5398 5396 5392 5389 5387 5385 5383 5381 5379 5377 5374 5372 5369 5367 5365 5364 5362 5358 5356 5353 5349 5346 5343 5340 5338 5336 5333 5330 5329 5328 5326 5322 5319 5316 5313 5310 5307 5302 5298 5295 5295 5293 5292 5291 5290 5290 5288 5285 5282 5278 5276 5275 5273 5272 5271 5269 5267 5265 5263 5261 5259 5258 5256 5254 5252 5250 5248 5246 5244
5422 5419 5417 5415 5413 5410 5408 5406 5403 5400 5398 5396 5393 5390 5388 5385 5383 5381 5379 5376 5372 5370 5368 5366 5363 5361 5359 5356 5353 5351 5349 5348 5346 5343 5341 5338 5334 5330 5326 5322 5319 5317 5314 5312 5311 5311 5308 5305 5302 5300 5297 5294 5291 5287 5283 5280 5278 5277 5276 5275 5274 5274 5273 5271 5268 5264 5262 5260 5258 5257 5256 5255 5253 5252 5249 5247 5245 5244 5243 5241 5238 5236 5234 5232 5229
5408 5405 5403 5401 5398 5396 5393 5391 5388 5386 5383 5381 5378 5376 5373 5371 5368 5366 5364 5361 5359 5355 5353 5351 5348 5345 5342 5340 5337 5334 5332 5331 5330 5328 5325 5322 5318 5313 5309 5305 5301 5298 5296 5295 5295 5293 5291 5288 5286 5283 5280 5277 5274 5270 5268 5265 5263 5262 5262 5261 5259 5258 5257 5256 5253 5250 5248 5246 5244 5243 5242 5241 5239 5237 5235 5233 5231 5230 5228 5226 5224 5221 5219 5217 5214
5393 5391 5388 5386 5383 5381 5378 5376 5373 5370 5368 5365 5363 5360 5358 5356 5354 5351 5348 5346 5343 5340 5337 5334 5332 5329 5326 5323 5321 5318 5315 5313 5313 5311 5309 5305 5300 5295 5291 5287 5284 5281 5279 5278 5278 5277 5274 5271 5268 5265 5262 5260 5258 5256 5254 5252 5249 5248 5247 5246 5244 5243 5242 5241 5239 5236 5234 5232 5230 5229 5228 5226 5225 5223 5220 5218 5216 5214 5213 5211 5209 5206 5204 5202 5200
5378 5376 5373 5370 5368 5365 5362 5360 5357 5355 5352 5350 5347 5345 5343 5340 5338 5336 5333 5331 5328 5324 5321 5318 5315 5313 5309 5306 5303 5301 5298 5296 5294 5292 5289 5285 5280 5275 5272 5270 5267 5264 5261 5260 5262 5261 5259 5256 5253 5251 5248 5246 5245 5243 5242 5239 5237 5235 5233 5231 5229 5228 5227 5226 5224 5222 5220 5218 5216 5215 5213 5212 5210 5208 5205 5203 5201 5199 5197 5195 5193 5192 5190 5187 5185
5362 5360 5357 5354 5352 5349 5346 5344 5341 5339 5337 5334 5332 5330 5327 5325 5323 5320 5318 5315 5311 5308 5304 5301 5298 5296 5293 5289 5286 5283 5281 5278 5276 5273 5269 5265 5261 5257 5254 5252 5251 5248 5245 5244 5245 5246 5246 5244 5241 5238 5236 5233 5231 5229 5228 5225 5223 5220 5218 5216 5215 5214 5213 5211 5209 5207 5205 5203 5201 5200 5198 5196 5194 5192 5189 5188 5186 5184 5182 5180 5178 5177 5175 5172 5170
5346 5344 5341 5338 5336 5333 5331 5328 5326 5324 5321 5319 5316 5314 5312 5309 5307 5304 5301 5298 5295 5291 5288 5284 5281 5278 5274 5271 5268 5266 5263 5261 5259 5256 5251 5247 5244 5241 5238 5236 5234 5233 5231 5229 5229 5229 5229 5229 5228 5225 5222 5219 5217 5214 5213 5211 5208 5206 5204 5202 5201 5199 5198 5196 5194 5192 5190 5188 5186 5184 5182 5180 5178 5176 5174 5173 5171 5169 5168 5166 5164 5163 5161 5158 5157
5330 5328 5325 5322 5320 5318 5315 5313 5311 5308 5306 5303 5301 5298 5295 5292 5290 5287 5283 5280 5277 5274 5271 5267 5264 5261 5257 5254 5252 5249 5247 5244 5242 5239 5235 5232 5229 5227 5224 5221 5219 5217 5216 5215 5214 5213 5212 5211 5211 5210 5207 5205 5202 5199 5197 5195 5193 5190 5188 5187 5185 5184 5182 5180 5178 5176 5173 5171 5169 5168 5166 5164 5162 5161 5159 5158 5157 5155 5154 5152 5150 5149 5147 5145 5143
5315 5312 5309 5307 5305 5302 5300 5298 5295 5293 5290 5287 5284 5281 5278 5275 5272 5269 5266 5262 5259 5257 5254 5250 5247 5244 5241 5239 5236 5233 5231 5228 5225 5222 5219 5217 5215 5212 5210 5207 5205 5203 5201 5199 5198 5198 5196 5195 5194 5193 5192 5191 5188 5185 5182 5179 5177 5175 5173 5171 5169 5168 5166 5164 5161 5159 5157 5155 5153 5151 5150 5148 5147 5146 5144 5144 5143 5141 5140 5138 5137 5135 5134 5132 5130
5299 5296 5294 5292 5289 5287 5285 5282 5279 5276 5274 5270 5267 5264 5261 5258 5255 5252 5248 5245 5242 5239 5236 5233 5229 5226 5224 5222 5219 5217 5215 5212 5209 5207 5204 5202 5199 5197 5196 5193 5190 5188 5186 5184 5183 5182 5181 5180 5179 5178 5177 5176 5174 5171 5168 5164 5161 5158 5156 5154 5152 5150 5148 5147 5145 5143 5141 5139 5137 5136 5135 5134 5133 5131 5131 5130 5129 5128 5126 5125 5124 5122 5121 5120 5119
5284 5281 5279 5276 5274 5271 5269 5266 5263 5260 5257 5254 5251 5248 5244 5241 5238 5235 5231 5228 5225 5221 5218 5215 5212 5209 5207 5205 5202 5200 5199 5197 5194 5192 5190 5187 5185 5182 5180 5178 5176 5174 5171 5169 5167 5165 5163 5162 5160 5159 5157 5156 5155 5153 5150 5146 5143 5140 5137 5136 5134 5132 5131 5130 5129 5127 5126 5124 5123 5122 5121 5120 5119 5118 5118 5117 5116 5115 5114 5113 5112 5111 5110 5110 5109
5268 5266 5263 5260 5257 5255 5252 5249 5247 5244 5240 5237 5234 5231 5227 5224 5220 5217 5213 5210 5207 5204 5201 5198 5195 5192 5190 5188 5186 5184 5183 5181 5179 5177 5175 5173 5170 5167 5164 5161 5159 5156 5153 5151 5148 5145 5143 5141 5139 5137 5135 5133 5132 5131 5129 5127 5124 5122 5120 5118 5117 5116 5115 5115 5114 5113 5112 5111 5110 5109 5108 5107 5107 5106 5106 5105 5104 5103 5102 5102 5101 5101 5100 5099 5098
5252 5250 5247 5244 5241 5239 5236 5233 5230 5226 5223 5220 5216 5212 5209 5206 5202 5199 5197 5193 5190 5188 5185 5183 5180 5177 5174 5172 5170 5169 5167 5165 5163 5161 5158 5156 5153 5149 5146 5142 5138 5135 5132 5130 5127 5124 5122 5120 5118 5116 5114 5113 5111 5109 5108 5108 5106 5105 5104 5104 5103 5102 5102 5101 5101 5100 5099 5098 5098 5097 5097 5096 5096 5096 5095 5094 5093 5092 5092 5091 5091 5090 5090 5089 5088
5237 5234 5231 5228 5225 5221 5218 5215 5212 5208 5205 5201 5197 5194 5191 5188 5186 5183 5180 5178 5175 5172 5170 5167 5165 5163 5160 5157 5154 5152 5150 5147 5144 5142 5139 5136 5132 5129 5125 5121 5117 5114 5111 5108 5105 5103 5101 5100 5098 5097 5096 5095 5094 5093 5092 5091 5090 5090 5089 5089 5089 5089 5089 5089 5088 5088 5087 5087 5087 5086 5086 5086 5085 5085 5084 5083 5082 5082 5082 5081 5080 5080 5079 5078 5077
5221 5218 5214 5211 5207 5204 5200 5197 5194 5191 5187 5184 5181 5178 5175 5172 5170 5168 5165 5162 5160 5157 5154 5152 5149 5146 5143 5140 5136 5133 5130 5127 5124 5121 5118 5115 5111 5108 5104 5100 5097 5094 5091 5088 5086 5084 5082 5082 5081 5080 5079 5078 5078 5077 5077 5076 5076 5075 5075 5075 5075 5076 5076 5076 5076 5076 5076 5076 5076 5076 5075 5075 5075 5074 5073 5073 5072 5072 5071 5071 5070 5070 5069 5069 5068
5204 5201 5197 5194 5190 5186 5183 5179 5176 5174 5171 5168 5165 5163 5160 5157 5154 5152 5149 5146 5143 5140 5137 5134 5130 5127 5124 5121 5117 5114 5110 5107 5104 5101 5098 5094 5091 5088 5084 5080 5077 5075 5073 5071 5069 5067 5066 5065 5065 5065 5064 5064 5064 5063 5063 5063 5062 5062 5062 5062 5062 5063 5063 5063 5064 5064 5064 5065 5065 5064 5064 5064 5064 5063 5063 5062 5062 5062 5062 5061 5061 5061 5060 5059 5059
5188 5184 5181 5177 5174 5170 5167 5164 5161 5158 5156 5153 5151 5148 5145 5142 5138 5135 5131 5128 5124 5121 5118 5114 5110 5107 5104 5101 5097 5094 5090 5087 5084 5081 5078 5075 5072 5069 5066 5063 5060 5058 5056 5055 5054 5053 5053 5051 5051 5051 5051 5050 5050 5050 5050 5050 5050 5049 5049 5049 5050 5051 5051 5051 5052 5052 5053 5053 5053 5054 5054 5054 5053 5053 5053 5053 5052 5052 5052 5052 5052 5052 5051 5051 5050
5171 5168 5164 5161 5158 5155 5153 5150 5147 5144 5141 5138 5136 5133 5129 5125 5122 5117 5113 5109 5106 5102 5098 5094 5091 5087 5084 5081 5077 5074 5071 5068 5065 5063 5060 5057 5055 5052 5050 5048 5046 5044 5042 5041 5040 5040 5039 5039 5039 5038 5038 5038 5038 5037 5037 5037 5037 5037 5037 5037 5038 5039 5039 5040 5040 5041 5041 5042 5043 5043 5043 5043 5043 5043 5043 5043 5043 5043 5043 5043 5043 5043 5043 5042 5041
5155 5153 5150 5147 5144 5141 5138 5136 5133 5129 5126 5123 5120 5116 5112 5108 5104 5100 5095 5091 5087 5083 5079 5075 5072 5068 5065 5062 5059 5056 5054 5051 5049 5047 5045 5043 5040 5038 5036 5035 5033 5031 5030 5029 5028 5027 5027 5027 5027 5027 5026 5026 5026 5025 5025 5025 5024 5024 5025 5025 5026 5027 5028 5028 5029 5030 5031 5032 5032 5033 5033 5033 5033 5033 5034 5034 5034 5035 5035 5035 5035 5035 5035 5034 5034
5141 5138 5136 5133 5129 5126 5123 5120 5116 5113 5109 5105 5102 5098 5094 5090 5086 5081 5077 5073 5069 5065 5061 5057 5055 5052 5049 5047 5044 5042 5039 5038 5036 5034 5032 5030 5028 5026 5025 5023 5022 5021 5020 5019 5018 5017 5016 5016 5016 5016 5015 5015 5015 5014 5014 5013 5013 5013 5013 5013 5014 5015 5016 5018 5019 5020 5021 5022 5022 5023 5023 5024 5024 5024 5025 5026 5026 5027 5027 5027 5027 5027 5027 5026 5026
5128 5124 5121 5118 5114 5110 5107 5103 5099 5095 5091 5087 5084 5080 5076 5072 5068 5064 5060 5056 5053 5049 5046 5043 5040 5038 5036 5034 5032 5030 5028 5026 5024 5022 5020 5019 5017 5015 5014 5013 5012 5011 5010 5009 5008 5007 5006 5005 5005 5004 5004 5004 5004 5003 5003 5002 5001 5001 5001 5002 5003 5004 5005 5007 5008 5009 5010 5012 5013 5013 5014 5015 5015 5016 5017 5018 5018 5019 5020 5020 5020 5020 5020 5019 5019